User: anonymous   Login
Location: EverStaR Observatory
(38.9036°N, 94.8303°W)
Time: 05:43:46
(UTC-05:00)
Language:

Hubble Space Telescope - Orbit

View from above orbital plane
View from above orbital plane
View from above satellite
View from above satellite

Ground track
Ground track

The orbit data is extracted from the following two-line orbital elements,

1 20580U 90037B   19142.11713748 +.00000384 +00000-0 +12417-4 0  9997
2 20580 028.4704 034.2718 0002737 184.1152 305.8259 15.09226433396632
Epoch (UTC): 22 May 2019 02:48:40
Eccentricity: 0.0002737
inclination: 28.4704°
perigee height: 536 km
apogee height: 540 km
right ascension of ascending node: 34.2718°
argument of perigee: 184.1152°
revolutions per day: 15.09226433
mean anomaly at epoch: 305.8259°
orbit number at epoch: 39663

The dashed part of the orbit path shows where the satellite is in the earth's shadow,  

DLR